Location: Newark
(50.0306°N, 2.3272°E)
Time: 07:57:09
(UTC+00:00)

Transit 2A Rocket - Pass Details

Date: 12 December 2019
Orbit: 593 x 910 km, 66.7° (Epoch: 20 January)

Event Time Altitude Azimuth Distance (km) Brightness Sun altitude
Rises 14:49:47 0° 173° (S) 2,959 8.7 6.2°
Reaches altitude 10° 14:52:39 10° 156° (SSE) 2,007 7.6 5.9°
Maximum altitude 14:55:48 19° 111° (ESE) 1,472 6.3 5.5°
Drops below altitude 10° 14:58:52 10° 66° (ENE) 1,950 6.6 5.2°
Sets 15:01:36 0° 49° (NE) 2,843 7.3 4.9°
